EDT,Max TemperatureF,Mean TemperatureF,Min TemperatureF,Max Dew PointF,MeanDew PointF,Min DewpointF,Max Humidity, Mean Humidity, Min Humidity, Max Sea Level PressureIn, Mean Sea Level PressureIn, Min Sea Level PressureIn, Max VisibilityMiles, Mean VisibilityMiles, Min VisibilityMiles, Max Wind SpeedMPH, Mean Wind SpeedMPH, Max Gust SpeedMPH,PrecipitationIn, CloudCover, Events, WindDirDegrees
2012-9-1,91,81,71,73,70,66,97,81,44,30.17,30.09,30.04,10,8,0,10,2,18,0.67,2,Fog-Rain-Thunderstorm,274
2012-9-2,89,78,69,74,71,69,100,85,61,30.08,30.00,29.91,10,8,1,8,2,,0.04,1,Rain-Thunderstorm,303
2012-9-3,87,78,71,73,70,68,94,87,62,30.05,29.99,29.91,10,8,2,13,2,25,0.28,6,Rain,193
2012-9-4,80,75,71,72,70,69,100,89,74,30.02,29.97,29.88,10,7,1,9,2,,0.06,8,Rain,194
2012-9-5,84,76,71,72,70,69,96,85,67,29.98,29.91,29.83,10,9,5,12,5,17,0.00,7,,201
2012-9-6,86,78,71,72,69,65,93,79,51,29.99,29.91,29.85,10,9,4,14,3,,0.01,4,Rain-Thunderstorm,266
2012-9-7,87,76,66,70,67,65,94,79,49,30.01,29.92,29.83,10,9,2,7,1,,0.00,2,,232
2012-9-8,82,75,66,72,67,57,100,83,57,29.83,29.79,29.70,10,7,0,12,2,22,0.00,5,Fog-Rain-Thunderstorm,232
2012-9-9,79,69,60,57,51,47,72,56,33,30.00,29.90,29.84,10,10,10,9,5,,0.00,4,,338
2012-9-10,79,67,55,61,55,51,90,68,39,30.13,30.06,29.99,10,10,10,6,3,,0.01,3,,338
2012-9-11,77,68,62,59,55,51,84,65,51,30.28,30.22,30.14,10,10,10,7,3,,0.00,5,,47
2012-9-12,81,68,57,61,57,55,100,77,42,30.38,30.30,30.23,10,7,0,7,1,,0.00,3,Fog,29
2012-9-13,79,66,55,58,55,52,97,71,42,30.34,30.28,30.23,10,10,6,7,1,,0.00,0,,48
2012-9-14,82,69,57,62,57,54,93,71,41,30.25,30.19,30.13,10,10,10,5,1,,0.01,1,,294
2012-9-15,84,72,61,64,60,57,94,69,42,30.18,30.12,30.06,10,9,2,9,3,,0.15,3,Rain,338
2012-9-16,69,65,62,65,64,62,100,92,83,30.18,30.12,30.05,9,3,1,7,3,,0.88,8,Rain,60
2012-9-17,70,66,62,67,64,62,100,96,88,30.13,30.03,29.83,10,3,0,8,2,,0.77,8,Fog-Rain,62
2012-9-18,73,70,64,70,66,61,94,89,81,29.86,29.75,29.68,10,8,1,20,8,30,1.16,7,Rain-Thunderstorm,226
2012-9-19,73,65,57,58,54,50,87,68,48,30.10,30.00,29.86,10,10,10,7,3,,0.00,3,,27
2012-9-20,75,65,57,58,57,55,94,76,53,30.16,30.09,30.02,10,10,6,7,1,,0.00,3,,204
2012-9-21,80,67,55,62,58,54,100,82,44,30.10,30.04,29.95,10,6,0,8,2,,0.00,2,Fog,224
2012-9-22,84,70,60,65,60,49,93,70,50,29.98,29.93,29.86,10,9,4,8,5,,0.00,2,,229
2012-9-23,75,64,52,53,44,31,86,53,19,30.13,30.05,29.99,10,10,10,9,4,,0.00,0,,333
2012-9-24,70,58,46,47,42,38,86,60,36,30.22,30.17,30.13,10,10,10,8,2,,0.00,0,,19
2012-9-25,73,60,46,57,52,44,93,75,55,30.22,30.18,30.16,10,10,10,9,2,,0.01,0,,200
2012-9-26,80,68,57,61,58,54,90,72,50,30.19,30.15,30.12,10,10,10,7,3,,0.00,0,,189
2012-9-27,82,68,55,61,58,54,100,83,42,30.22,30.15,30.07,10,5,0,5,0,,0.00,1,Fog,315
2012-9-28,82,71,60,65,62,58,100,85,47,30.08,30.04,29.97,10,6,0,13,3,22,0.45,3,Fog-Rain-Thunderstorm,294
2012-9-29,71,66,62,64,63,62,100,95,78,30.05,29.96,29.85,10,4,0,10,1,,0.92,7,Fog-Rain-Thunderstorm,28
2012-9-30,72,62,54,63,56,50,100,85,47,29.95,29.90,29.82,10,5,0,5,1,,0.01,3,Fog,341